STARLINK-5789 (56003 NORAD) Tracking and Keplerian Element Data

This shows tracking and keplerian element data for the satellite.

Feedback or suggestion? Click here.




ElementValue
Catalog56003
NameSTARLINK-5789
Epoch Orbit712
Epoch Day127.00001157
Epoch Year2023
RAAN297.6073
Inclination43.0002
Eccentricity0.0001351
Argument of Perigee272.6312
Mean Anonmoly312.1643
Mean Motion15.36378458
Decay Rate-0.00930053
L11 56003U 23042T 23127.00001157 -.00930053 00000+0 -28003-1 0 9999
L22 56003 43.0002 297.6073 0001351 272.6312 312.1643 15.36378458 7122



Live tracking and technical data element details for STARLINK-5789 (NORAD 56003). STARLINK-5789 can be tracked NOW for your location showing map with azimuth and elevation plus other details from your city location.







IsCatalogInMostPopularTable: catalog: 56003, numindb: -1

Insert: records affected: 1


GetName: 56003 STARLINK-5789

Hit Count: inserted at: Mon, 05 Jun 2023 00:36:10 GMT